{"data":{"norad_id":61240,"intl_designator":"2024-174C","name":"2024-174C","alt_names":[],"object_type":"PAYLOAD","status":"ACTIVE","operator":null,"country":"PRC","launch_date":"2024-09-24","launch_site_code":"JSC","launch_vehicle":null,"mission":null,"orbit_class":"UNKNOWN","rcs_meters":null,"size_class":null,"mass_kg":null,"dimensions":null,"purposes":[],"wikipedia_slug":null,"has_3d_model":false,"image_url":null,"decayed_at":null,"tle_current":{"epoch":"2026-09-22T21:12:10.999296Z","epoch_age_seconds":88713,"freshness":"FRESH","line1":"1 61240U 24174C   26265.88346064  .00000489  00000+0  26506-4 0  9994","line2":"2 61240  97.4499 272.4730 0001623  94.7080 265.4340 15.19133942110512","mean_motion":15.19133942,"eccentricity":0.0001623,"inclination_deg":97.4499,"raan_deg":272.473,"arg_perigee_deg":94.708,"mean_anomaly_deg":265.434,"bstar":2.6506e-5,"rev_number":11051,"period_min":94.790851562712,"perigee_km":507.33904068176,"apogee_km":509.57442900808,"semimajor_km":6886.5937348449,"source":"CELESTRAK","updated_at":"2026-09-23T09:00:20.857291Z"}}}